This demonstration page uses our WeatherBlox Daily Observations layout. Learn more.

Left ArrowRight Arrow

Hourly Observations for September 15, 2021

Temp ( °F °C ) Dew Point ( °F °C ) Humidity (%) Winds ( mph kmh ) Pressure ( in mb ) Visibility ( mi km ) Precip ( " mm )
12:52 am 00:52 Clear with Patchy Fog 59 15 58 14.4 96 96 Calm 30.00 1016 10 16 0.00 0.00
1:52 am 01:52 Clear with Patchy Fog 57 13.9 57 13.9 100 100 Calm 30.00 1016 10 16 0.00 0.00
2:52 am 02:52 Clear with Patchy Fog 57 13.9 56 13.3 96 96 Calm 30.00 1016 10 16 0.00 0.00
3:04 am 03:04 Mostly Clear with Patchy Fog 57 13.9 56 13.3 96 96 Calm 30.01 1016 10 16 0.00 0.00
3:52 am 03:52 Clear with Patchy Fog 59 15 57 13.9 93 93 Calm 29.99 1016 8 13 0.00 0.00
4:20 am 04:20 Mostly Clear with Mist and Fog 57 13.9 56 13.3 96 96 Calm 30.00 1016 6 10 0.00 0.00
4:28 am 04:28 Mostly Cloudy with Fog 57 13.9 56 13.3 96 96 N 5 7 30.00 1016 1 2 0.00 0.00
4:52 am 04:52 Mostly Cloudy with Fog 56 13.3 56 13.3 100 100 N 3 6 29.98 1015 1 2 0.00 0.00
5:11 am 05:11 Mostly Cloudy with Mist and Fog 55 12.8 55 12.8 100 100 Calm 30.00 1016 1 1 0.00 0.00
5:37 am 05:37 Mostly Cloudy with Mist and Fog 55 12.8 55 12.8 100 100 Calm 30.02 1017 2 2 0.00 0.00
5:47 am 05:47 Mostly Cloudy with Fog 55 13 55 13 100 100 Calm 30.02 1017 1 2 0.00 0.00
5:52 am 05:52 Mostly Cloudy with Fog 55 12.8 55 12.8 100 100 Calm 30.01 1016 1 2 0.00 0.00
5:58 am 05:58 Mostly Cloudy with Fog 55 12.8 55 12.8 100 100 Calm 30.02 1017 0 0 0.00 0.00
6:05 am 06:05 Mostly Cloudy with Fog 54 12.2 54 12.2 100 100 Calm 30.03 1017 1 1 0.00 0.00
6:18 am 06:18 Cloudy with Mist and Fog 55 12.8 55 12.8 100 100 Calm 30.03 1017 3 4 0.00 0.00
6:21 am 06:21 Partly Cloudy with Mist and Fog 55 12.8 55 12.8 100 100 Calm 30.03 1017 3 5 0.00 0.00
6:52 am 06:52 Mostly Clear with Mist and Fog 57 13.9 56 13.3 96 96 S 3 6 30.02 1017 5 8 0.00 0.00
7:52 am 07:52 Sunny 59 15 56 13.3 90 90 SSE 6 9 30.04 1017 10 16 0.00 0.00
8:52 am 08:52 Mostly Sunny 63 17.2 59 15 87 87 S 6 9 30.04 1017 10 16 0.00 0.00
9:52 am 09:52 Mostly Sunny 68 20 59 15 73 73 S 10 17 30.04 1017 10 16 0.00 0.00
10:52 am 10:52 Mostly Sunny 72 22.2 59 15 64 64 S 10 17 30.04 1017 10 16 0.00 0.00
11:52 am 11:52 Mostly Sunny 75 23.9 59 15 58 58 S 13 20 30.01 1016 10 16 0.00 0.00
12:52 pm 12:52 Mostly Sunny 78 25.6 58 14.4 50 50 S 13 20 29.99 1016 10 16 0.00 0.00
1:52 pm 13:52 Mostly Sunny 80 26.7 57 13.9 45 45 S 13 20 29.96 1015 10 16 0.00 0.00
2:52 pm 14:52 Mostly Sunny 82 27.8 56 13.3 41 41 SSE 13 20 29.93 1014 10 16 0.00 0.00
3:52 pm 15:52 Sunny 83 28.3 56 13.3 40 40 S 14 22 29.91 1013 10 16 0.00 0.00
4:52 pm 16:52 Sunny 83 28.3 54 12.2 37 37 SSE 18 30 29.89 1012 10 16 0.00 0.00
5:52 pm 17:52 Sunny 83 28.3 54 12.2 37 37 S 16 26 29.89 1012 10 16 0.00 0.00
6:52 pm 18:52 Sunny 81 27.2 54 12.2 39 39 S 13 20 29.89 1012 10 16 0.00 0.00
7:52 pm 19:52 Clear 76 24.4 56 13.3 50 50 SSE 13 20 29.89 1012 10 16 0.00 0.00
8:52 pm 20:52 Clear 74 23.3 57 13.9 56 56 SSE 15 24 29.89 1012 10 16 0.00 0.00
9:52 pm 21:52 Clear 73 22.8 57 13.9 57 57 SSE 14 22 29.90 1013 10 16 0.00 0.00
10:52 pm 22:52 Clear 72 22.2 58 14.4 61 61 SSE 14 22 29.91 1013 10 16 0.00 0.00
11:52 pm 23:52 Clear 70 21.1 58 14.4 66 66 S 9 15 29.90 1013 10 16 0.00 0.00

Powered by AerisWeather